Location: Bourg-d�Oueil
(42.8588°N, 0.4991°E)
Time: 14:16:08
(UTC+00:00)

Cosmos 2333 Rocket - Pass Details

Date: 16 June 2021
Orbit: 841 x 861 km, 70.8° (Epoch: 31 July)

Event Time Altitude Azimuth Distance (km) Brightness Sun altitude
Exits shadow 22:50:56 14° 229° (SW) 2,205 4.1 -21.9°
Maximum altitude 22:55:38 48° 300° (WNW) 1,107 3.0 -22.2°
Drops below altitude 10° 23:01:11 10° 15° (NNE) 2,493 5.5 -22.4°
Sets 23:03:44 0° 21° (NNE) 3,429 6.2 -22.6°
